User: anonymous   Login
Location: Unspecified
(0.0000°N, 0.0000°E)
Time: 20:50:44
(UTC+00:00)
Language:

CORIOLIS - Orbit

View from above orbital plane
View from above orbital plane
View from above satellite
View from above satellite

Ground track
Ground track

The orbit data is extracted from the following two-line orbital elements,

1 27640U 03001A   18140.92385854 -.00000002 +00000-0 +20120-4 0  9993
2 27640 098.7380 151.4842 0015127 059.8055 359.5320 14.18978224795867
Epoch (UTC): 20 May 2018 22:10:21
Eccentricity: 0.0015127
inclination: 98.7380°
perigee height: 818 km
apogee height: 840 km
right ascension of ascending node: 151.4842°
argument of perigee: 59.8055°
revolutions per day: 14.18978224
mean anomaly at epoch: 359.5320°
orbit number at epoch: 79586

The dashed part of the orbit path shows where the satellite is in the earth's shadow,  

DLR